{"data":{"norad_id":49296,"epoch":"2026-05-24T21:57:43.878816Z","epoch_age_seconds":92444,"freshness":"FRESH","line1":"1 49296U 21090T   26144.91509119 -.00000064  00000+0 -18814-3 0  9990","line2":"2 49296  87.9176 279.0800 0001804 108.0979 252.0351 13.20772985226791","mean_motion":13.20772985,"eccentricity":0.0001804,"inclination_deg":87.9176,"raan_deg":279.08,"arg_perigee_deg":108.0979,"mean_anomaly_deg":252.0351,"bstar":-0.00018814,"rev_number":22679,"period_min":109.02706342074,"perigee_km":1180.405093216,"apogee_km":1183.1327072648,"semimajor_km":7559.9059002404,"source":"CELESTRAK","updated_at":"2026-05-25T13:38:22.522962Z"}}